TimeEDT,TemperatureF,Dew PointF,Humidity,Sea Level PressureIn,VisibilityMPH,Wind Direction,Wind SpeedMPH,Gust SpeedMPH,PrecipitationIn,Events,Conditions,WindDirDegrees,DateUTC
12:53 AM,66.0,63.0,90,29.93,7.0,SW,11.5,-,N/A,,Clear,230,2013-06-25 04:53:00
1:53 AM,64.0,62.1,93,29.92,6.0,West,5.8,-,N/A,,Clear,260,2013-06-25 05:53:00
2:53 AM,66.0,62.1,87,29.92,9.0,West,9.2,-,N/A,,Clear,260,2013-06-25 06:53:00
3:53 AM,66.9,62.1,84,29.93,10.0,West,11.5,-,N/A,,Clear,270,2013-06-25 07:53:00
4:53 AM,66.9,62.1,84,29.93,10.0,West,11.5,-,N/A,,Clear,270,2013-06-25 08:53:00
5:53 AM,70.0,63.0,78,29.93,10.0,West,9.2,-,N/A,,Clear,270,2013-06-25 09:53:00
6:53 AM,70.0,63.0,78,29.92,10.0,West,10.4,-,N/A,,Clear,260,2013-06-25 10:53:00
7:53 AM,73.0,64.0,73,29.94,10.0,West,12.7,-,N/A,,Clear,260,2013-06-25 11:53:00
8:53 AM,75.0,64.0,69,29.94,10.0,West,11.5,-,N/A,,Clear,270,2013-06-25 12:53:00
9:53 AM,72.0,64.0,76,29.92,10.0,SW,11.5,-,N/A,,Partly Cloudy,230,2013-06-25 13:53:00
10:53 AM,73.9,64.9,73,29.92,10.0,WSW,12.7,-,N/A,,Clear,240,2013-06-25 14:53:00
11:53 AM,73.9,64.0,71,29.92,10.0,WSW,16.1,-,N/A,,Clear,250,2013-06-25 15:53:00
12:53 PM,77.0,64.9,66,29.91,10.0,WSW,15.0,-,N/A,,Clear,240,2013-06-25 16:53:00
1:53 PM,72.0,64.0,76,29.90,9.0,SW,15.0,-,N/A,,Clear,230,2013-06-25 17:53:00
2:53 PM,71.1,64.0,78,29.89,8.0,WSW,15.0,-,N/A,,Clear,240,2013-06-25 18:53:00
3:53 PM,70.0,64.9,84,29.87,8.0,SW,12.7,-,N/A,,Clear,230,2013-06-25 19:53:00
4:53 PM,69.1,64.0,84,29.85,7.0,SW,11.5,-,N/A,,Clear,220,2013-06-25 20:53:00
5:53 PM,69.1,64.0,84,29.83,7.0,SW,11.5,-,N/A,,Clear,220,2013-06-25 21:53:00
6:53 PM,66.9,64.0,90,29.83,5.0,WSW,12.7,-,N/A,,Clear,240,2013-06-25 22:53:00
7:53 PM,66.0,64.0,93,29.82,3.0,SW,10.4,-,N/A,,Scattered Clouds,220,2013-06-25 23:53:00
8:21 PM,64.4,62.6,94,29.82,3.0,SSW,10.4,-,N/A,,Mostly Cloudy,210,2013-06-26 00:21:00
8:46 PM,64.4,62.6,94,29.81,0.2,SW,11.5,-,N/A,Fog,Fog,220,2013-06-26 00:46:00
8:53 PM,64.0,63.0,96,29.81,0.2,SSW,10.4,-,N/A,Fog,Fog,210,2013-06-26 00:53:00
8:55 PM,64.4,62.6,94,29.81,0.2,SSW,10.4,-,N/A,Fog,Fog,210,2013-06-26 00:55:00
9:18 PM,64.4,62.6,94,29.81,1.0,SW,9.2,-,N/A,,Mist,220,2013-06-26 01:18:00
9:36 PM,64.4,62.6,94,29.81,3.0,SW,10.4,-,N/A,,Overcast,220,2013-06-26 01:36:00
9:44 PM,64.4,62.6,94,29.81,1.8,SW,10.4,-,N/A,,Overcast,220,2013-06-26 01:44:00
9:53 PM,64.0,63.0,96,29.81,1.0,SW,12.7,-,N/A,,Mist,220,2013-06-26 01:53:00
10:29 PM,64.4,62.6,94,29.80,2.5,SW,11.5,-,N/A,,Overcast,220,2013-06-26 02:29:00
10:36 PM,64.4,62.6,94,29.80,3.0,SW,9.2,-,N/A,,Overcast,220,2013-06-26 02:36:00
10:53 PM,64.9,64.0,97,29.80,3.0,SW,9.2,-,N/A,,Overcast,230,2013-06-26 02:53:00
11:53 PM,66.0,64.0,93,29.80,3.0,SW,11.5,-,N/A,,Overcast,230,2013-06-26 03:53:00